TimeCST,TemperatureF,Dew PointF,Humidity,Sea Level PressureIn,VisibilityMPH,Wind Direction,Wind SpeedMPH,Gust SpeedMPH,PrecipitationIn,Events,Conditions,WindDirDegrees,DateUTC
12:49 AM,53.6,48.2,82,30.10,7.0,Calm,Calm,-,N/A,,Clear,0,2013-03-05 06:49:00
1:41 AM,53.6,46.4,77,30.07,7.0,Calm,Calm,-,N/A,,Partly Cloudy,0,2013-03-05 07:41:00
2:45 AM,51.8,46.4,82,30.10,7.0,Calm,Calm,-,N/A,,Partly Cloudy,0,2013-03-05 08:45:00
3:46 AM,53.6,48.2,82,30.05,7.0,Calm,Calm,-,N/A,,Clear,0,2013-03-05 09:46:00
4:46 AM,51.8,44.6,76,30.05,7.0,ESE,3.5,-,N/A,,Clear,110,2013-03-05 10:46:00
5:48 AM,53.6,48.2,82,30.04,7.0,Calm,Calm,-,N/A,,Partly Cloudy,0,2013-03-05 11:48:00
6:45 AM,51.8,46.4,82,30.08,8.0,Calm,Calm,-,N/A,,Partly Cloudy,0,2013-03-05 12:45:00
7:40 AM,66.2,53.6,64,30.10,8.0,ESE,4.6,-,N/A,,Scattered Clouds,120,2013-03-05 13:40:00
8:53 AM,73.4,51.8,47,30.13,8.0,ESE,10.4,-,N/A,,Scattered Clouds,110,2013-03-05 14:53:00
9:42 AM,75.2,51.8,44,30.12,8.0,ESE,10.4,21.9,N/A,,Scattered Clouds,110,2013-03-05 15:42:00
10:40 AM,75.2,51.8,44,30.11,8.0,ESE,10.4,-,N/A,,Scattered Clouds,110,2013-03-05 16:40:00
11:41 AM,75.2,50.0,41,30.06,8.0,SE,8.1,-,N/A,,Scattered Clouds,140,2013-03-05 17:41:00
12:58 PM,77.0,50.0,39,30.06,8.0,SE,9.2,-,N/A,,Scattered Clouds,140,2013-03-05 18:58:00
1:42 PM,77.0,50.0,39,30.03,8.0,SE,9.2,-,N/A,,Scattered Clouds,140,2013-03-05 19:42:00
2:43 PM,75.2,50.0,41,30.02,8.0,SE,5.8,-,N/A,,Scattered Clouds,130,2013-03-05 20:43:00
3:50 PM,75.2,50.0,41,30.04,8.0,East,9.2,-,N/A,,Scattered Clouds,100,2013-03-05 21:50:00
4:46 PM,73.4,51.8,47,30.05,8.0,ESE,10.4,-,N/A,,Scattered Clouds,120,2013-03-05 22:46:00
5:41 PM,71.6,55.4,57,30.02,8.0,ESE,5.8,-,N/A,,Partly Cloudy,120,2013-03-05 23:41:00
6:43 PM,64.4,51.8,64,30.07,7.0,Calm,Calm,-,N/A,,Partly Cloudy,0,2013-03-06 00:43:00
7:48 PM,66.2,55.4,68,30.08,7.0,Calm,Calm,-,N/A,,Partly Cloudy,0,2013-03-06 01:48:00
8:42 PM,62.6,53.6,72,30.13,7.0,Calm,Calm,-,N/A,,Partly Cloudy,0,2013-03-06 02:42:00
9:42 PM,59.0,50.0,72,30.11,7.0,Calm,Calm,-,N/A,,Partly Cloudy,0,2013-03-06 03:42:00
10:42 PM,57.2,51.8,82,30.10,7.0,Calm,Calm,-,N/A,,Partly Cloudy,0,2013-03-06 04:42:00
11:53 PM,55.4,48.2,77,30.07,7.0,Calm,Calm,-,N/A,,Partly Cloudy,0,2013-03-06 05:53:00